Newark, NJ

1:49 AM EDT on July 22, 2017 (GMT -0400)
Newark International

Weather History for KEWR - September, 2013

Change the Weather History Date:

Sunday, September 8, 2013

  Actual Average Record
Temperature  
Mean Temperature 72 °F 71 °F  
Max Temperature 84 °F 80 °F 98 °F (2015)
Min Temperature 59 °F 63 °F 50 °F (1940)
Degree Days  
Heating Degree Days 0 0  
Month to date heating degree days 1 0  
Since 1 July heating degree days 1 1  
Cooling Degree Days 7 6  
Month to date cooling degree days 61 59  
Year to date cooling degree days 1232 1093  
Growing Degree Days 25 (Base 50)    
Moisture  
Dew Point 54 °F    
Average Humidity 52    
Maximum Humidity 73    
Minimum Humidity 31    
Precipitation  
Precipitation T in 0.12 in 2.93 in (1934)
Month to date precipitation 0.14 0.91  
Year to date precipitation 33.44 32.28  
Snow  
Snow 0.00 in 0.00 in 0.00 in (2002)
Month to date snowfall 0.0 0.0  
Since 1 July snowfall 0.0 0.0  
Snow Depth 0.00 in    
Sea Level Pressure  
Sea Level Pressure 29.90 in    
Wind  
Wind Speed 13 mph (WNW)    
Max Wind Speed 23 mph    
Max Gust Speed 33 mph    
Visibility 10 miles    
Events      
T = Trace of Precipitation, MM = Missing Value Source: NWS Daily Summary

Daily Weather History Graph

Daily Weather History Graph

Search for Another Location

Airport or City:

Trip Planner

Search our weather history database for the weather conditions in past years. The results will help you decide how hot, cold, wet, or windy it might be!

Date:

Astronomy

Sep. 08, 2013 Rise Set
Actual Time 6:30 AM EDT 7:17 PM EDT
Civil Twilight 6:03 AM EDT 7:44 PM EDT
Nautical Twilight 5:30 AM EDT 8:17 PM EDT
Astronomical Twilight 4:56 AM EDT 8:51 PM EDT
Moon 9:46 AM EDT (9/8) 8:49 PM EDT (9/8)
Length of Visible Light 13h 41m
Length of Day
12h 46m
Waxing Crescent, 11% of the Moon is Illuminated
Sep 8
Waxing Crescent
Sep 12
First Quarter
Sep 19
Full
Sep 26
Last Quarter
Oct 4
New

Hourly Weather History & Observations

Time (EDT) Temp. Heat Index Dew Point Humidity Pressure Visibility Wind Dir Wind Speed Gust Speed Precip Events Conditions
12:51 AM 70.0 °F - 52.0 °F 53% 29.91 in 10.0 mi WSW 10.4 mph - N/A   Mostly Cloudy
1:51 AM 69.1 °F - 54.0 °F 58% 29.89 in 10.0 mi WSW 9.2 mph - N/A   Mostly Cloudy
2:51 AM 69.1 °F - 55.9 °F 63% 29.88 in 10.0 mi SW 9.2 mph - 0.00 in   Overcast
3:51 AM 69.1 °F - 57.0 °F 65% 29.86 in 10.0 mi WSW 9.2 mph - N/A   Overcast
4:51 AM 68.0 °F - 57.0 °F 68% 29.85 in 10.0 mi WSW 10.4 mph - N/A   Mostly Cloudy
5:51 AM 66.9 °F - 57.9 °F 73% 29.84 in 10.0 mi WSW 9.2 mph - N/A   Mostly Cloudy
6:51 AM 66.9 °F - 57.9 °F 73% 29.84 in 10.0 mi WSW 8.1 mph - N/A   Mostly Cloudy
7:51 AM 66.9 °F - 57.9 °F 73% 29.86 in 10.0 mi WSW 6.9 mph - N/A   Mostly Cloudy
8:51 AM 71.1 °F - 59.0 °F 66% 29.84 in 10.0 mi SW 6.9 mph - N/A   Scattered Clouds
9:51 AM 72.0 °F - 60.1 °F 66% 29.85 in 10.0 mi NW 9.2 mph - N/A   Scattered Clouds
10:51 AM 78.1 °F - 62.1 °F 58% 29.83 in 10.0 mi West 9.2 mph - N/A   Mostly Cloudy
11:51 AM 81.0 °F 82.2 °F 63.0 °F 54% 29.83 in 10.0 mi WNW 9.2 mph - N/A   Mostly Cloudy
12:51 PM 79.0 °F - 62.1 °F 56% 29.83 in 10.0 mi NNW 15.0 mph 24.2 mph N/A   Mostly Cloudy
1:51 PM 82.9 °F 83.3 °F 61.0 °F 47% 29.84 in 10.0 mi NNW 16.1 mph 26.5 mph N/A   Mostly Cloudy
2:51 PM 82.9 °F 82.4 °F 57.0 °F 41% 29.85 in 10.0 mi NW 23.0 mph 28.8 mph N/A   Mostly Cloudy
3:51 PM 82.9 °F 82.1 °F 55.9 °F 39% 29.86 in 10.0 mi NNW 20.7 mph 26.5 mph N/A   Scattered Clouds
4:51 PM 81.0 °F 80.4 °F 53.1 °F 38% 29.88 in 10.0 mi NW 16.1 mph 26.5 mph N/A   Scattered Clouds
5:51 PM 79.0 °F - 46.0 °F 31% 29.90 in 10.0 mi NW 16.1 mph 25.3 mph N/A   Scattered Clouds
6:51 PM 75.9 °F - 42.1 °F 30% 29.93 in 10.0 mi NNW 17.3 mph 26.5 mph N/A   Scattered Clouds
7:51 PM 73.0 °F - 43.0 °F 34% 29.97 in 10.0 mi NNW 16.1 mph - N/A   Partly Cloudy
8:51 PM 71.1 °F - 42.1 °F 35% 30.01 in 10.0 mi NNW 16.1 mph 25.3 mph N/A   Clear
9:51 PM 68.0 °F - 43.0 °F 40% 30.05 in 10.0 mi North 15.0 mph 25.3 mph N/A   Clear
10:51 PM 66.0 °F - 43.0 °F 43% 30.07 in 10.0 mi North 17.3 mph - N/A   Clear
11:51 PM 63.0 °F - 44.1 °F 50% 30.09 in 10.0 mi North 11.5 mph - N/A   Clear